DW8306 Weather Reports


time (UTC)temp
C
wind
direction
speed
KPH
gust
KPH
rain 1hr
cm
rain 24hr
cm
rain mn
cm
humidity
%
barometer
mb
20260905100006 25 4 0.0 0.0 0.00 0.00 0.00 89 1012.3
20260905094506 25 4 0.0 0.0 0.00 0.00 0.00 89 1012.1
20260905093005 25 4 0.0 0.0 0.00 0.00 0.00 88 1012.0
20260905091504 25 4 0.0 0.0 0.00 0.00 0.00 88 1012.0
20260905090003 25 4 0.0 0.0 0.00 0.00 0.00 88 1012.0
20260905084502 25 4 0.0 0.0 0.00 0.00 0.00 88 1012.1
20260905083002 25 4 0.0 0.0 0.00 0.00 0.00 88 1012.2
20260905081603 25 4 0.0 0.0 0.00 0.00 0.00 87 1012.2
20260905080059 25 4 0.0 0.0 0.00 0.00 0.00 87 1012.2
20260905074602 25 4 0.0 0.0 0.00 0.00 0.00 87 1012.2
20260905073105 25 4 0.0 0.0 0.00 0.00 0.00 86 1012.3
20260905071556 25 4 0.0 0.0 0.00 0.00 0.00 86 1012.4
20260905070054 26 4 0.0 0.0 0.00 0.00 0.00 85 1012.5
20260905064608 26 4 0.0 0.0 0.00 0.00 0.00 84 1012.5
20260905063056 26 4 0.0 0.0 0.00 0.00 0.00 83 1012.3
20260905061612 26 4 0.0 0.0 0.00 0.00 0.00 83 1012.3
20260905060049 26 4 0.0 0.0 0.00 0.00 0.00 82 1012.4
20260905054547 26 4 0.0 0.0 0.00 0.00 0.00 82 1012.5
20260905053042 27 4 0.0 0.0 0.00 0.00 0.00 81 1012.6
20260905051549 27 4 0.0 0.0 0.00 0.00 0.00 81 1012.4
20260905050039 27 4 0.0 0.0 0.00 0.00 0.00 80 1012.4
20260905044550 27 39 0.0 0.0 0.00 0.00 0.00 80 1012.5
20260905043034 27 35 0.0 0.0 0.00 0.00 0.00 80 1012.6
20260905041534 27 348 0.0 0.0 0.00 0.00 0.00 80 1012.6
20260905040036 27 347 0.0 0.0 0.00 0.00 0.00 79 1012.7
20260905034540 27 347 0.0 0.0 0.00 0.00 0.00 78 1012.7
20260905033051 27 54 0.0 0.0 0.00 0.00 0.00 78 1012.7
20260905031532 28 277 0.0 0.0 0.00 0.00 0.00 77 1012.7
20260905030031 28 263 0.0 0.0 0.00 0.00 0.00 77 1012.8
20260905024532 28 243 0.0 0.0 0.00 0.00 0.00 77 1012.8
20260905023100 28 243 0.0 0.0 0.00 0.00 0.00 77 1012.5
20260905021530 28 243 0.0 0.0 0.00 0.00 0.00 77 1012.4
20260905020030 28 187 0.0 0.0 0.00 0.00 0.00 77 1011.9
20260905014529 29 187 0.0 0.0 0.00 0.00 0.00 76 1011.8
20260905013029 30 187 0.0 1.6 0.00 0.00 0.00 73 1011.6
20260905011526 30 187 0.0 0.0 0.00 0.00 0.00 71 1011.5
20260905010032 31 187 0.0 0.0 0.00 0.00 0.00 69 1011.4
20260905004525 31 187 0.0 0.0 0.00 0.00 0.00 67 1011.3
20260905003025 32 187 0.0 0.0 0.00 0.00 0.00 64 1011.3
20260905001525 33 187 0.0 0.0 0.00 0.00 0.00 60 1011.4
20260905000024 34 187 0.0 0.0 0.00 0.00 0.00 57 1011.3
20260904234530 35 187 0.0 0.0 0.00 0.00 0.00 56 1011.2
20260904233022 35 170 0.0 1.6 0.00 0.00 0.00 56 1011.1
20260904231522 36 87 0.0 6.4 0.00 0.00 0.00 54 1010.9
20260904230021 36 85 0.0 1.6 0.00 0.00 0.00 54 1010.9
20260904224520 36 245 0.0 0.0 0.00 0.00 0.00 53 1010.8
20260904223020 36 245 0.0 1.6 0.00 0.00 0.00 52 1010.9
20260904221519 36 25 0.0 3.2 0.00 0.00 0.00 52 1010.9
20260904220026 36 271 0.0 0.0 0.00 0.00 0.00 55 1010.9
20260904214517 36 318 0.0 6.4 0.00 0.00 0.00 57 1011.0
20260904213015 36 152 0.0 1.6 0.00 0.00 0.00 54 1011.2
20260904211513 36 23 0.0 8.0 0.00 0.00 0.00 56 1011.3
20260904210015 36 97 0.0 6.4 0.00 0.00 0.00 56 1011.5
20260904204510 36 97 3.2 9.7 0.00 0.00 0.00 53 1011.8
20260904203008 36 98 1.6 9.7 0.00 0.00 0.00 55 1011.9
20260904201507 36 158 1.6 8.0 0.00 0.00 0.00 54 1012.0
20260904200014 35 249 0.0 8.0 0.00 0.00 0.00 55 1012.3
20260904194506 35 66 3.2 11.3 0.00 0.00 0.00 56 1012.4
20260904193002 36 104 4.8 11.3 0.00 0.00 0.00 53 1012.7
20260904191601 36 116 0.0 8.0 0.00 0.00 0.00 54 1012.9
20260904190059 36 86 0.0 6.4 0.00 0.00 0.00 56 1013.2
20260904184607 35 155 0.0 9.7 0.00 0.00 0.00 60 1013.2
20260904183055 34 343 1.6 12.9 0.00 0.00 0.00 59 1013.4
20260904181604 33 354 0.0 8.0 0.00 0.00 0.00 61 1013.6
20260904180110 33 296 1.6 9.7 0.00 0.00 0.00 59 1013.8
20260904174607 33 83 1.6 8.0 0.00 0.00 0.00 58 1014.1
20260904173050 33 268 0.0 6.4 0.00 0.00 0.00 61 1014.4
20260904171549 33 50 1.6 9.7 0.00 0.00 0.00 60 1014.7
20260904170048 32 335 0.0 6.4 0.00 0.00 0.00 61 1014.8
20260904164546 32 289 1.6 8.0 0.00 0.00 0.00 62 1014.9
20260904163051 32 66 0.0 9.7 0.00 0.00 0.00 64 1014.9
20260904161541 32 107 0.0 3.2 0.00 0.00 0.00 65 1015.0
20260904160039 32 73 1.6 8.0 0.00 0.00 0.00 65 1015.1
20260904154539 31 64 1.6 8.0 0.00 0.00 0.00 67 1015.2
20260904153044 31 88 1.6 8.0 0.00 0.00 0.00 70 1015.3
20260904151533 30 43 0.0 3.2 0.00 0.00 0.00 71 1015.1
20260904150032 30 64 0.0 6.4 0.00 0.00 0.00 72 1014.9
20260904144528 30 133 0.0 6.4 0.00 0.00 0.00 74 1014.8
20260904143025 30 13 0.0 1.6 0.00 0.00 0.00 78 1014.8
20260904141519 29 122 0.0 0.0 0.00 0.00 0.00 78 1015.0
20260904140015 28 122 0.0 0.0 0.00 0.00 0.00 81 1014.9
20260904134511 27 95 0.0 0.0 0.00 0.00 0.00 87 1014.8
20260904133007 25 94 0.0 1.6 0.00 0.00 0.00 91 1014.5
20260904131504 25 95 0.0 0.0 0.00 0.00 0.00 95 1014.3
20260904130004 23 94 0.0 0.0 0.00 0.00 0.00 95 1014.4
20260904124503 23 95 0.0 0.0 0.00 0.00 0.00 95 1014.3
20260904123001 23 95 0.0 0.0 0.00 0.00 0.00 95 1014.2
20260904121603 23 95 0.0 0.0 0.00 0.00 0.00 95 1014.1
20260904120104 23 95 0.0 0.0 0.00 0.00 0.00 94 1014.0
20260904114557 23 95 0.0 0.0 0.00 0.00 0.00 94 1013.8
20260904113100 23 95 0.0 0.0 0.00 0.00 0.00 94 1013.5
20260904111555 23 95 0.0 0.0 0.00 0.00 0.00 94 1013.6
20260904110057 23 94 0.0 0.0 0.00 0.00 0.00 94 1013.6
20260904104559 23 95 0.0 0.0 0.00 0.00 0.00 94 1013.5
20260904103053 23 95 0.0 0.0 0.00 0.00 0.00 94 1013.5
20260904101603 23 95 0.0 0.0 0.00 0.00 0.00 94 1013.5